Grand Island, NE

4:17 PM CDT on September 24, 2016 (GMT -0500)
Central Nebraska Regional

Weather History for KGRI - March, 2013

Change the Weather History Date:

Thursday, March 28, 2013

  Actual Average Record
Temperature  
Mean Temperature 46 °F 44 °F  
Max Temperature 63 °F 56 °F 89 °F (1986)
Min Temperature 28 °F 31 °F 6 °F (1926)
Degree Days  
Heating Degree Days 19 21  
Month to date heating degree days 849 734  
Since 1 July heating degree days 5318 5495  
Cooling Degree Days 0 0  
Month to date cooling degree days 0 0  
Year to date cooling degree days 0 0  
Moisture  
Dew Point 29 °F    
Average Humidity 55    
Maximum Humidity 85    
Minimum Humidity 25    
Precipitation  
Precipitation 0.00 in 0.07 in 1.37 in (1981)
Month to date precipitation 1.06 1.56  
Year to date precipitation 2.19 2.77  
Snow  
Snow 0.00 in 0.10 in 9.00 in (1987)
Month to date snowfall 6.2 4.9  
Since 1 July snowfall 27.6 27.0  
Snow Depth 0.00 in    
Sea Level Pressure  
Sea Level Pressure 30.19 in    
Wind  
Wind Speed 8 mph (SE)    
Max Wind Speed 16 mph    
Max Gust Speed 21 mph    
Visibility 10 miles    
Events      
T = Trace of Precipitation, MM = Missing Value Source: NWS Daily Summary

Daily Weather History Graph

Daily Weather History Graph

Search for Another Location

Airport or City:

Trip Planner

Search our weather history database for the weather conditions in past years. The results will help you decide how hot, cold, wet, or windy it might be!

Date:

Astronomy

Mar. 28, 2013 Rise Set
Actual Time 7:22 AM CDT 7:54 PM CDT
Civil Twilight 6:55 AM CDT 8:21 PM CDT
Nautical Twilight 6:22 AM CDT 8:54 PM CDT
Astronomical Twilight 5:49 AM CDT 9:27 PM CDT
Moon 9:49 PM CDT (3/28) 7:50 AM CDT (3/28)
Length of Visible Light 13h 26m
Length of Day
12h 31m
Full, 98% of the Moon is Illuminated
Mar 28
Full
Apr 2
Last Quarter
Apr 10
New
Apr 18
First Quarter
Apr 25
Full

Hourly Weather History & Observations

Time (CDT) Temp. Windchill Dew Point Humidity Pressure Visibility Wind Dir Wind Speed Gust Speed Precip Events Conditions
12:53 AM 36.0 °F 29.0 °F 28.0 °F 73% 30.22 in 10.0 mi SSE 9.2 mph - N/A   Clear
1:53 AM 35.1 °F 27.9 °F 28.0 °F 76% 30.22 in 10.0 mi South 9.2 mph - N/A   Clear
2:53 AM 35.1 °F 27.4 °F 28.9 °F 78% 30.22 in 10.0 mi South 10.4 mph - N/A   Clear
3:53 AM 33.1 °F 26.1 °F 28.0 °F 82% 30.21 in 10.0 mi South 8.1 mph - N/A   Clear
4:53 AM 32.0 °F 27.5 °F 27.0 °F 82% 30.21 in 10.0 mi South 4.6 mph - N/A   Clear
5:53 AM 30.0 °F 26.5 °F 26.1 °F 85% 30.21 in 10.0 mi SSE 3.5 mph - N/A   Clear
6:53 AM 30.9 °F 27.5 °F 27.0 °F 85% 30.20 in 10.0 mi SSE 3.5 mph - N/A   Clear
7:53 AM 30.0 °F - 27.0 °F 88% 30.22 in 7.0 mi Calm Calm - N/A   Clear
8:53 AM 36.0 °F 33.3 °F 30.0 °F 79% 30.24 in 10.0 mi ESE 3.5 mph - N/A   Mostly Cloudy
9:53 AM 39.9 °F - 32.0 °F 73% 30.23 in 10.0 mi Calm Calm - N/A   Mostly Cloudy
10:53 AM 46.0 °F 44.8 °F 33.1 °F 61% 30.24 in 10.0 mi SSE 3.5 mph - N/A   Scattered Clouds
11:53 AM 52.0 °F - 32.0 °F 47% 30.22 in 10.0 mi SSE 10.4 mph - N/A   Overcast
12:53 PM 55.0 °F - 30.0 °F 38% 30.20 in 10.0 mi SSE 11.5 mph - N/A   Clear
1:53 PM 57.9 °F - 30.0 °F 35% 30.19 in 10.0 mi SSE 9.2 mph - N/A   Partly Cloudy
2:53 PM 60.1 °F - 28.9 °F 31% 30.16 in 10.0 mi SE 11.5 mph 17.3 mph N/A   Clear
3:53 PM 62.1 °F - 26.1 °F 25% 30.13 in 10.0 mi SE 13.8 mph - N/A   Clear
4:53 PM 61.0 °F - 26.1 °F 26% 30.13 in 10.0 mi SSE 13.8 mph - N/A   Partly Cloudy
5:53 PM 61.0 °F - 24.1 °F 24% 30.14 in 10.0 mi SSE 8.1 mph - N/A   Partly Cloudy
6:53 PM 59.0 °F - 25.0 °F 27% 30.15 in 10.0 mi ESE 6.9 mph - N/A   Partly Cloudy
7:53 PM 54.0 °F - 30.0 °F 40% 30.17 in 10.0 mi East 5.8 mph - N/A   Scattered Clouds
8:53 PM 50.0 °F - 32.0 °F 50% 30.17 in 10.0 mi ESE 11.5 mph - N/A   Mostly Cloudy
9:53 PM 46.9 °F - 32.0 °F 56% 30.19 in 10.0 mi ESE 10.4 mph - N/A   Clear
10:53 PM 46.0 °F 41.0 °F 30.9 °F 56% 30.19 in 10.0 mi ESE 10.4 mph - N/A   Clear
11:53 PM 46.0 °F 39.6 °F 30.9 °F 56% 30.18 in 10.0 mi SE 15.0 mph - N/A   Clear